GW3346 Weather Reports


time (UTC)temp
C
wind
direction
speed
KPH
gust
KPH
rain 1hr
cm
rain 24hr
cm
rain mn
cm
humidity
%
barometer
mb
20260906093219 17 44 3.2 4.8 0.00 0.00 0.00 99 1017.2
20260906092715 17 44 4.8 6.4 0.00 0.00 0.00 98 1017.2
20260906092214 17 37 9.7 12.9 0.00 0.00 0.00 97 1017.2
20260906091711 17 54 6.4 9.7 0.00 0.00 0.00 96 1016.9
20260906091207 17 41 6.4 11.3 0.00 0.00 0.00 96 1016.9
20260906090703 17 40 9.7 12.9 0.00 0.00 0.00 95 1016.9
20260906090202 17 41 9.7 16.1 0.00 0.00 0.00 95 1016.9
20260906085700 18 47 9.7 14.5 0.00 0.00 0.00 94 1016.5
20260906085154 18 37 12.9 17.7 0.00 0.00 0.00 94 1016.5
20260906084654 18 41 11.3 16.1 0.00 0.00 0.00 93 1016.5
20260906084149 18 41 9.7 14.5 0.00 0.00 0.00 93 1016.5
20260906083644 18 46 12.9 20.9 0.00 0.00 0.00 93 1016.5
20260906083139 18 51 11.3 19.3 0.00 0.00 0.00 93 1016.5
20260906082634 18 44 11.3 14.5 0.00 0.00 0.00 93 1016.5
20260906082130 18 45 11.3 17.7 0.00 0.00 0.00 93 1016.5
20260906081625 18 43 6.4 12.9 0.00 0.00 0.00 93 1016.5
20260906081115 18 46 9.7 14.5 0.00 0.00 0.00 93 1016.5
20260906080612 18 26 12.9 19.3 0.00 0.00 0.00 92 1016.5
20260906080108 18 39 6.4 9.7 0.00 0.00 0.00 91 1016.9
20260906075607 18 37 8.0 11.3 0.00 0.00 0.00 89 1016.9
20260906075101 18 30 11.3 14.5 0.00 0.00 0.00 89 1016.9
20260906074556 18 35 12.9 14.5 0.00 0.00 0.00 89 1016.9
20260906074049 18 37 9.7 16.1 0.00 0.00 0.00 90 1016.9
20260906073544 18 65 6.4 9.7 0.00 0.00 0.00 90 1016.5
20260906073041 18 34 9.7 12.9 0.00 0.00 0.00 89 1016.5
20260906072535 18 40 8.0 9.7 0.00 0.00 0.00 89 1016.9
20260906072031 18 45 8.0 11.3 0.00 0.00 0.00 88 1016.5
20260906071527 18 44 9.7 11.3 0.00 0.00 0.00 88 1016.5
20260906071022 18 53 6.4 11.3 0.00 0.00 0.00 88 1016.5
20260906070518 18 43 9.7 16.1 0.00 0.00 0.00 88 1016.5
20260906070009 18 27 8.0 12.9 0.00 0.00 0.00 89 1016.9
20260906065507 19 36 8.0 11.3 0.00 0.00 0.00 88 1016.9
20260906065003 19 39 9.7 14.5 0.00 0.00 0.00 89 1016.5
20260906064459 19 28 9.7 12.9 0.00 0.00 0.00 88 1016.5
20260906063954 19 39 9.7 12.9 0.00 0.00 0.00 89 1016.5
20260906063450 19 33 8.0 9.7 0.00 0.00 0.00 89 1016.5
20260906062949 18 43 6.4 9.7 0.00 0.00 0.00 89 1016.5
20260906062445 18 31 6.4 8.0 0.00 0.00 0.00 90 1016.5
20260906061940 18 42 8.0 11.3 0.00 0.00 0.00 89 1016.5
20260906061436 19 39 6.4 9.7 0.00 0.00 0.00 89 1016.5
20260906060930 18 38 9.7 12.9 0.00 0.00 0.00 89 1016.5
20260906060427 18 52 8.0 16.1 0.00 0.00 0.00 89 1016.5
20260906055923 18 39 8.0 11.3 0.00 0.00 0.00 89 1016.5
20260906055419 18 45 9.7 14.5 0.00 0.00 0.00 90 1016.5
20260906054914 18 46 9.7 14.5 0.00 0.00 0.00 91 1016.5
20260906054409 18 40 8.0 14.5 0.00 0.00 0.00 93 1016.5
20260906053905 17 37 9.7 12.9 0.00 0.00 0.00 94 1016.1
20260906053401 17 51 6.4 9.7 0.00 0.00 0.00 96 1016.1
20260906052856 17 51 4.8 6.4 0.00 0.00 0.00 97 1016.1
20260906052352 17 51 4.8 6.4 0.00 0.00 0.00 97 1016.1
20260906051849 17 51 4.8 4.8 0.00 0.00 0.00 97 1016.1
20260906051349 18 51 3.2 3.2 0.00 0.00 0.00 96 1016.1
20260906050845 18 51 0.0 3.2 0.00 0.00 0.00 96 1016.1
20260906050339 18 51 3.2 4.8 0.00 0.00 0.00 95 1016.1
20260906045838 18 51 4.8 6.4 0.00 0.00 0.00 95 1016.1
20260906045332 18 51 3.2 3.2 0.00 0.00 0.00 95 1016.1
20260906044829 18 51 1.6 3.2 0.00 0.00 0.00 96 1016.1
20260906044329 18 51 1.6 3.2 0.00 0.00 0.00 96 1015.8
20260906043826 18 51 4.8 9.7 0.00 0.00 0.00 96 1015.8
20260906043321 18 51 4.8 6.4 0.00 0.00 0.00 95 1015.8
20260906042821 18 51 6.4 8.0 0.00 0.00 0.00 95 1015.4
20260906042320 18 51 3.2 6.4 0.00 0.00 0.00 96 1015.4
20260906041815 18 51 4.8 8.0 0.00 0.00 0.00 95 1015.4
20260906041310 19 51 8.0 9.7 0.00 0.00 0.00 95 1015.4
20260906040805 19 51 4.8 9.7 0.00 0.00 0.00 95 1015.4
20260906040301 19 48 8.0 9.7 0.00 0.00 0.00 95 1015.4
20260906035756 19 50 6.4 9.7 0.00 3.28 3.28 96 1015.4
20260906035252 19 54 8.0 11.3 0.00 3.28 3.28 98 1015.8
20260906034752 19 43 6.4 8.0 0.00 3.28 3.28 99 1015.8
20260906034252 20 43 4.8 6.4 0.00 3.28 3.28 99 1015.8
20260906033748 20 43 6.4 11.3 0.00 3.28 3.28 98 1015.8
20260906033247 20 75 6.4 8.0 0.00 3.28 3.28 98 1015.8
20260906032743 20 75 4.8 6.4 0.00 3.28 3.28 98 1015.4
20260906032243 20 53 6.4 9.7 0.00 3.28 3.28 98 1015.4
20260906031738 20 52 6.4 9.7 0.00 3.28 3.28 98 1015.8
20260906031234 20 52 6.4 8.0 0.00 3.28 3.28 98 1015.8
20260906030729 20 52 6.4 9.7 0.00 3.28 3.28 97 1015.8
20260906030224 21 52 6.4 8.0 0.00 3.28 3.28 97 1015.8
20260906025723 21 50 6.4 9.7 0.00 3.28 3.28 96 1015.8
20260906025218 21 60 11.3 16.1 0.00 3.28 3.28 96 1015.8
20260906024717 21 49 8.0 11.3 0.00 3.28 3.28 95 1015.8
20260906024216 21 58 9.7 14.5 0.00 3.28 3.28 95 1015.8
20260906023712 21 54 9.7 12.9 0.00 3.28 3.28 95 1015.8
20260906023207 21 54 11.3 17.7 0.00 3.28 3.28 95 1015.8
20260906022702 22 49 11.3 17.7 0.00 3.28 3.28 95 1015.8
20260906022158 22 66 8.0 12.9 0.00 3.28 3.28 96 1015.8
20260906021653 22 45 9.7 12.9 0.00 3.28 3.28 96 1015.8
20260906021151 22 64 8.0 12.9 0.00 3.28 3.28 97 1015.8
20260906020641 22 67 11.3 19.3 0.00 3.28 3.28 97 1015.4
20260906020136 22 68 11.3 14.5 0.00 3.28 3.28 99 1015.4
20260906015630 22 72 9.7 14.5 0.00 3.28 3.28 99 1015.4
20260906015128 22 78 6.4 8.0 0.00 3.28 3.28 99 1015.4
20260906014623 22 30 6.4 9.7 0.00 3.28 3.28 99 1015.4
20260906014119 22 44 8.0 11.3 0.00 3.28 3.28 99 1015.4
20260906013615 22 63 6.4 8.0 0.00 3.28 3.28 99 1015.4
20260906013110 22 66 6.4 9.7 0.00 3.28 3.28 99 1015.4
20260906012605 22 53 8.0 11.3 0.00 3.28 3.28 99 1015.1
20260906012104 22 50 9.7 16.1 0.00 3.28 3.28 100 1015.1
20260906011601 22 40 9.7 11.3 0.00 3.28 3.28 100 1015.1
20260906011055 22 41 12.9 16.1 0.00 3.28 3.28 100 1015.1
20260906010551 22 29 8.0 9.7 0.00 3.28 3.28 100 1015.1
20260906010047 22 43 9.7 16.1 0.00 3.28 3.28 100 1014.8
20260906005546 22 46 11.3 14.5 0.00 3.28 3.28 100 1014.8
20260906005045 22 41 9.7 16.1 0.00 3.28 3.28 100 1014.8
20260906004544 22 42 9.7 14.5 0.00 3.28 3.28 100 1014.8
20260906004039 22 45 8.0 11.3 0.00 3.28 3.28 100 1014.4
20260906003535 22 45 6.4 9.7 0.00 3.28 3.28 99 1014.4
20260906003031 22 45 4.8 8.0 0.00 3.28 3.28 99 1014.4
20260906002530 22 45 4.8 8.0 0.00 3.28 3.28 98 1014.4
20260906002025 22 45 6.4 9.7 0.00 3.28 3.28 98 1014.4
20260906001521 22 36 8.0 14.5 0.00 3.28 3.28 97 1014.4
20260906001021 23 47 6.4 9.7 0.00 3.28 3.28 97 1014.4
20260906000517 23 39 9.7 12.9 0.00 3.28 3.28 97 1014.1
20260906000012 23 35 8.0 11.3 0.00 3.28 3.28 97 1014.1
20260905235505 23 29 4.8 4.8 0.00 3.28 3.28 97 1014.1
20260905235000 23 29 6.4 9.7 0.00 3.28 3.28 97 1014.1
20260905234450 23 26 9.7 12.9 0.00 3.28 3.28 96 1013.7
20260905233950 23 24 9.7 11.3 0.00 3.28 3.28 96 1013.7
20260905233445 24 36 9.7 14.5 0.00 3.28 3.28 96 1013.7
20260905232944 24 37 8.0 11.3 0.00 3.28 3.28 95 1014.1
20260905232441 24 35 11.3 14.5 0.00 3.28 3.28 95 1014.1
20260905231936 25 44 9.7 16.1 0.00 3.28 3.28 94 1014.1
20260905231432 25 47 8.0 11.3 0.00 3.28 3.28 94 1014.1
20260905230928 25 39 12.9 17.7 0.00 3.28 3.28 94 1014.1
20260905230426 25 40 11.3 17.7 0.00 3.28 3.28 94 1014.1
20260905225925 25 39 9.7 16.1 0.00 3.28 3.28 94 1014.1
20260905225420 25 23 12.9 17.7 0.00 3.28 3.28 93 1014.1
20260905224915 26 29 9.7 16.1 0.00 3.28 3.28 93 1013.7
20260905224411 26 22 11.3 14.5 0.00 3.28 3.28 92 1013.7
20260905223905 26 32 12.9 17.7 0.00 3.28 3.28 91 1013.7
20260905223403 26 30 11.3 14.5 0.00 3.28 3.28 91 1013.7
20260905222903 26 33 9.7 16.1 0.00 3.28 3.28 91 1013.4
20260905222402 26 23 12.9 16.1 0.00 3.28 3.28 91 1013.4
20260905221858 26 20 12.9 19.3 0.00 3.28 3.28 91 1013.4
20260905221355 27 29 12.9 17.7 0.00 3.28 3.28 91 1013.4
20260905220850 27 58 9.7 14.5 0.00 3.28 3.28 90 1013.1
20260905220346 27 44 9.7 16.1 0.00 3.28 3.28 89 1013.1
20260905215845 28 36 11.3 16.1 0.00 3.28 3.28 88 1013.1
20260905215341 27 36 9.7 14.5 0.00 3.28 3.28 89 1013.1
20260905214832 27 29 11.3 14.5 0.00 3.28 3.28 88 1013.4
20260905214327 27 11 12.9 19.3 0.00 3.28 3.28 88 1013.1
20260905213822 28 34 9.7 14.5 0.00 3.28 3.28 88 1013.1
20260905213318 28 32 9.7 14.5 0.00 3.28 3.28 88 1013.1
20260905212813 28 14 9.7 12.9 0.00 3.28 3.28 88 1012.6
20260905212312 28 12 12.9 16.1 0.00 3.28 3.28 87 1013.1
20260905211807 28 11 11.3 16.1 0.00 3.28 3.28 86 1013.1
20260905211302 28 355 12.9 16.1 0.00 3.28 3.28 87 1013.1
20260905210759 28 0 9.7 14.5 0.00 3.28 3.28 88 1013.4
20260905210258 28 358 11.3 16.1 0.00 3.28 3.28 87 1013.1
20260905205757 28 20 9.7 12.9 0.00 3.28 3.28 88 1013.1
20260905205252 27 8 9.7 12.9 0.00 3.28 3.28 89 1013.1
20260905204751 27 20 9.7 12.9 0.00 3.28 3.28 89 1013.4
20260905204248 27 19 11.3 14.5 0.00 3.28 3.28 87 1013.4
20260905203747 28 3 9.7 14.5 0.00 3.28 3.28 86 1013.4
20260905203242 28 12 9.7 12.9 0.00 3.28 3.28 85 1013.4
20260905202737 28 347 9.7 14.5 0.00 3.28 3.28 85 1013.4
20260905202232 28 347 9.7 11.3 0.00 3.28 3.28 85 1013.4
20260905201728 28 347 9.7 11.3 0.00 3.28 3.28 85 1013.7
20260905201223 28 347 6.4 9.7 0.00 3.28 3.28 84 1013.7
20260905200718 29 347 6.4 8.0 0.00 3.28 3.28 82 1013.4
20260905200214 29 347 8.0 9.7 0.00 3.28 3.28 82 1013.4
20260905195712 29 345 11.3 12.9 0.00 3.28 3.28 83 1013.4
20260905195212 29 340 6.4 12.9 0.00 3.28 3.28 82 1013.4
20260905194707 28 340 6.4 9.7 0.00 3.28 3.28 84 1013.4
20260905194207 28 340 6.4 9.7 0.00 3.28 3.28 84 1013.7
20260905193701 28 340 4.8 6.4 0.00 3.28 3.28 82 1013.7
20260905193156 29 294 0.0 3.2 0.00 3.28 3.28 82 1013.7
20260905192652 29 294 3.2 8.0 0.00 3.28 3.28 83 1013.7
20260905192149 28 294 3.2 4.8 0.00 3.28 3.28 82 1014.1
20260905191648 28 294 4.8 6.4 0.00 3.28 3.28 82 1014.1
20260905191146 28 294 4.8 6.4 0.00 3.28 3.28 83 1014.1
20260905190644 28 283 8.0 12.9 0.00 3.28 3.28 80 1014.1
20260905190144 29 280 8.0 11.3 0.00 3.28 3.28 81 1014.1
20260905185637 29 281 6.4 6.4 0.00 3.28 3.28 80 1014.1
20260905185132 29 269 8.0 17.7 0.00 3.28 3.28 81 1014.1
20260905184631 28 269 6.4 11.3 0.00 3.28 3.28 81 1014.4
20260905184131 30 277 6.4 9.7 0.00 3.28 3.28 80 1014.1
20260905183630 30 276 8.0 11.3 0.00 3.28 3.28 80 1014.1
20260905183126 29 266 4.8 6.4 0.00 3.28 3.28 80 1014.1
20260905182625 28 266 4.8 6.4 0.00 3.28 3.28 81 1014.1
20260905182119 29 277 6.4 9.7 0.00 3.28 3.28 80 1014.1
20260905181614 29 266 9.7 14.5 0.00 3.28 3.28 79 1014.1
20260905181113 29 294 9.7 12.9 0.00 3.28 3.28 79 1014.1
20260905180609 28 263 6.4 11.3 0.00 3.28 3.28 82 1014.1
20260905180104 28 261 9.7 14.5 0.00 3.28 3.28 81 1014.4
20260905175603 28 302 9.7 14.5 0.00 3.28 3.28 81 1014.4
20260905175058 28 289 4.8 8.0 0.00 3.28 3.28 82 1014.4
20260905174554 28 289 3.2 6.4 0.00 3.28 3.28 81 1014.4
20260905174049 28 310 0.0 4.8 0.00 3.28 3.28 83 1014.4
20260905173546 28 310 3.2 6.4 0.00 3.28 3.28 83 1014.4
20260905173041 28 310 0.0 0.0 0.00 3.28 3.28 82 1014.4
20260905172539 27 310 3.2 6.4 0.00 3.28 3.28 84 1014.8
20260905172035 27 310 6.4 9.7 0.00 3.28 3.28 84 1014.4
20260905171531 27 310 3.2 4.8 0.00 3.28 3.28 87 1014.4
20260905171027 27 310 3.2 6.4 0.00 3.28 3.28 87 1014.4
20260905170523 26 310 6.4 9.7 0.00 3.28 3.28 86 1014.4
20260905170018 26 310 1.6 6.4 0.00 3.28 3.28 88 1014.8
20260905165513 26 310 4.8 8.0 0.00 3.28 3.28 89 1014.4
20260905165008 25 310 3.2 4.8 0.00 3.28 3.28 89 1014.8
20260905164502 25 310 3.2 6.4 0.00 3.28 3.28 91 1014.8
20260905163956 25 310 3.2 4.8 0.00 3.28 3.28 92 1014.8
20260905163453 24 310 1.6 4.8 0.00 3.28 3.28 94 1014.8
20260905162949 23 310 0.0 3.2 0.00 3.28 3.28 95 1014.8
20260905162444 23 310 0.0 1.6 0.00 3.28 3.28 97 1014.8
20260905161939 22 310 1.6 6.4 0.00 3.28 3.28 99 1015.1
20260905161438 22 310 4.8 6.4 0.00 3.28 3.28 99 1015.4
20260905160936 21 310 0.0 0.0 0.00 3.28 3.28 100 1015.4
20260905160431 21 310 0.0 0.0 0.00 3.28 3.28 100 1015.4
20260905155930 21 310 1.6 3.2 0.00 3.28 3.28 100 1015.1
20260905155425 21 310 3.2 4.8 0.00 3.28 3.28 100 1015.1
20260905154923 21 310 3.2 6.4 0.00 3.28 3.28 100 1015.4
20260905154419 21 310 6.4 8.0 0.00 3.28 3.28 100 1015.4
20260905153915 21 310 6.4 8.0 0.00 3.28 3.28 100 1015.4
20260905153411 21 310 3.2 4.8 0.00 3.28 3.28 100 1015.4
20260905152910 21 310 6.4 6.4 0.00 3.28 3.28 100 1015.4
20260905152409 21 310 6.4 9.7 0.00 3.28 3.28 100 1015.4
20260905151905 21 3 0.0 0.0 0.00 3.28 3.28 100 1015.1
20260905151400 21 3 6.4 8.0 0.00 3.28 3.28 100 1015.1
20260905150855 21 3 6.4 6.4 0.00 3.28 3.28 100 1015.4
20260905150354 21 212 0.0 0.0 0.00 3.28 3.28 99 1015.1
20260905145851 21 212 0.0 0.0 0.00 3.28 3.28 99 1014.8
20260905145346 22 212 0.0 0.0 0.00 3.28 3.28 99 1014.8
20260905144845 22 212 0.0 0.0 0.00 3.28 3.28 98 1014.8
20260905144341 22 212 0.0 0.0 0.00 3.28 3.28 98 1014.8
20260905143839 22 212 0.0 0.0 0.00 3.28 3.28 98 1014.8
20260905143334 22 212 0.0 0.0 0.00 3.28 3.28 97 1014.8
20260905142833 22 212 0.0 0.0 0.00 1.19 1.19 97 1014.4
20260905104323 19 53 9.7 16.1 4.80 1.12 1.12 100 1016.5
20260905103822 19 53 9.7 16.1 4.80 1.12 1.12 100 1016.5
20260905103318 19 52 16.1 20.9 4.80 0.79 0.79 100 1016.1
20260905102814 19 64 16.1 20.9 2.39 0.56 0.56 100 1016.5
20260905102311 19 79 9.7 16.1 1.19 0.41 0.41 99 1016.5
20260905101810 19 89 11.3 16.1 0.00 0.33 0.33 99 1016.5
20260905101309 20 36 6.4 9.7 1.19 0.25 0.25 99 1016.5
20260905100803 19 27 11.3 16.1 0.00 0.23 0.23 99 1016.1
20260905100300 19 23 12.9 17.7 1.19 0.20 0.20 99 1015.8
20260905095759 19 28 11.3 16.1 0.00 0.18 0.18 99 1015.8
20260905095259 19 32 14.5 20.9 0.00 0.18 0.18 100 1016.1
20260905094753 19 30 11.3 16.1 0.00 0.18 0.18 100 1016.1
20260905094249 19 42 14.5 20.9 0.00 0.18 0.18 100 1016.1
20260905093748 19 50 11.3 17.7 0.00 0.15 0.15 100 1016.1